Weather Service Report


601 
ASUS45 KPSR 220810
RWRAZ 

ARIZONA HOURLY REGIONAL WEATHER ROUNDUP
NATIONAL WEATHER SERVICE PHOENIX AZ
100 AM MST WED NOV 22 2017

NOTE: FAIR INDICATES FEW OR NO CLOUDS BELOW 12,000 FEET WITH NO
SIGNIFICANT WEATHER AND/OR OBSTRUCTIONS TO VISIBILITY.

AZZ001>003-036-220900-
NORTHWEST ARIZONA
  
CITY           SKY/WX    TMP DP  RH WIND       PRES   REMARKS
BULLHEAD CITY  MOCLDY    72  14  11 NE20G28   30.12S                  
KINGMAN        PTCLDY    49  22  34 E5        30.27S                  
$$

AZZ004>008-015-016-018-220900-
NORTH CENTRAL ARIZONA
  
CITY           SKY/WX    TMP DP  RH WIND       PRES   REMARKS
GRAND CANYON   PTCLDY    32  21  64 E3        30.44F                  
WILLIAMS       CLEAR     37  25  60 E3        30.42S                  
PRESCOTT       CLEAR     41  28  60 S7        30.33S                  
FLAGSTAFF      PTCLDY    44  27  51 E7        30.43S                  
PAYSON           N/A     57  25  28 E6        30.32F                  
PAGE           PTCLDY    47  20  34 SW3       30.37F                  
$$

AZZ009>014-017-220900-
NORTHEAST ARIZONA
  
CITY           SKY/WX    TMP DP  RH WIND       PRES   REMARKS
WINSLOW        PTCLDY    37  16  42 W3        30.37F                  
SAINT JOHNS    CLEAR     40  19  43 S8        30.37F WCI  34          
WINDOW ROCK    CLEAR     28  18  66 CALM      30.42S                  
SHOW LOW       CLEAR     36  14  41 S5        30.41F WCI  32          
$$

AZZ540-542>544-546-548-220900-
GREATER PHOENIX AREA
  
CITY           SKY/WX    TMP DP  RH WIND       PRES   REMARKS
PHOENIX        PTCLDY    61  34  36 E6        30.07S                  
BUCKEYE        CLEAR     55  18  22 CALM      30.08S                  
LUKE AFB       CLEAR     58  29  34 NW8       30.06F                  
DEER VALLEY    CLEAR     65  26  23 E5        30.08S                  
SCOTTSDALE     CLEAR     61  30  31 NE6       30.11R                  
MESA-GATEWAY   CLEAR     54  25  32 E6        30.11R                  
$$

AZZ539-553-220900-
SOUTHWEST MARICOPA COUNTY AND PINAL COUNTY
  
CITY           SKY/WX    TMP DP  RH WIND       PRES   REMARKS
CASA GRANDE    NOT AVBL                                               
$$

AZZ503-504-507>509-220900-
SOUTHEAST ARIZONA
  
CITY           SKY/WX    TMP DP  RH WIND       PRES   REMARKS
TUCSON         CLEAR     52  21  29 S5        30.16F                  
DAVIS-MONTHAN  CLEAR     53  20  27 CALM      30.14S                  
NOGALES        CLEAR     50  21  32 NE3       30.19F                  
SIERRA VISTA   PTCLDY    57  15  18 CALM      30.26S                  
DOUGLAS        PTCLDY    48  15  26 E6        30.24R                  
SAFFORD        PTCLDY    50  12  21 SE8       30.24R                  
$$

AZZ532-220900-
SOUTHWEST ARIZONA
  
CITY           SKY/WX    TMP DP  RH WIND       PRES   REMARKS
YUMA           CLOUDY    72  17  12 N7        30.05S                  
$$

CAZ041-043-047-048-061-525>527-560>570-220900-
SOUTHERN CALIFORNIA
  
CITY           SKY/WX    TMP DP  RH WIND       PRES   REMARKS
DOWNTOWN L.A.  CLEAR     67  34  29 CALM      30.03R                  
L.A. AIRPORT   CLEAR     68  48  48 E3        30.04R                  
SAN DIEGO      CLEAR     65  46  50 N3        30.05F                  
BURBANK        CLEAR     74  26  16 NW7       30.06S                  
ONTARIO        PTCLDY    66  37  34 CALM      30.07F                  
RIVERSIDE      CLEAR     67  36  31 NE6       30.08S                  
PALM SPRINGS   CLEAR     68  30  24 NW6       30.11F                  
EL CENTRO NAS  CLEAR     57  30  35 NW7       30.07S                  
IMPERIAL       CLEAR     59  37  44 NW5       30.04F                  
BLYTHE         PTCLDY    66  17  15 NW6       30.09S                  
$$

NVZ020-UTZ003-220900-
SOUTHERN NEVADA-UTAH
  
CITY           SKY/WX    TMP DP  RH WIND       PRES   REMARKS
LAS VEGAS      MOCLDY    59  30  33 W7        30.24S                  
SALT LAKE CITY MOCLDY    49  40  71 SE6       30.38S                  
$$

NMZ009-TXZ055-220900-
NEW MEXICO-WEST TEXAS
  
CITY           SKY/WX    TMP DP  RH WIND       PRES   REMARKS
ALBUQUERQUE    CLOUDY    46  24  42 N7        30.39F                  
EL PASO        PTCLDY    53  23  31 NE5       30.35S                  
$$


........................KEY........................
SKY/WX - SKY CONDITION/WEATHER
TMP    - TEMPERATURE IN FAHRENHEIT
DP     - DEW POINT IN FAHRENHEIT
RH     - RELATIVE HUMIDITY IN PERCENT
WIND   - DIRECTION AND SPEED IN MILES PER HOUR (MPH)
VRB    - VARIABLE WIND DIRECTION
PRES   - MEAN SEA LEVEL PRESSURE IN INCHES OF MERCURY
         F - FALLING PRESSURE   R - RISING PRESSURE
         S - STEADY PRESSURE
VSB    - VISIBILITY IN MILES
HX     - HEAT INDEX IN FAHRENHEIT
WCI    - WIND CHILL INDEX IN FAHRENHEIT
TC     - TEMPERATURE IN CELSIUS WHICH IS ALSO KNOWN AS
         TEMPERATURE IN CENTIGRADE
AFB    - AIR FORCE BASE
         LUKE AFB IS LUKE AIR FORCE BASE
         DAVIS-MONTHAN IS DAVIS-MONTHAN AIR FORCE BASE
NAS    - NAVAL AIR STATION
         EL CENTRO NAS IS EL CENTRO NAVAL AIR STATION
N/A    - NOT AVAILABLE

  

Return to Home page


Western Regional Climate Center, wrcc@dri.edu